Location: Gaast
(52.9002°N, 5.8891°E)
Time: 13:39:02
(UTC+00:00)

Cosmos 1140 Rocket - Visible Passes

Search period start: 14 February 2026 00:00
Search period end: 24 February 2026 00:00
Orbit: 739 x 763 km, 74.1° (Epoch: 13 February)

Date Brightness Start Highest point End Pass type
(mag) Time Alt. Az. Time Alt. Az. Time Alt. Az.
14 Feb 6.2 02:37:07 11° N 02:37:07 11° N 02:37:17 10° N visible
16 Feb 5.9 06:19:12 10° N 06:21:00 12° NNE 06:22:48 10° NE visible
19 Feb 6.0 05:53:51 10° N 05:56:08 13° NNE 05:58:24 10° ENE visible
22 Feb 6.0 05:28:34 10° N 05:31:14 14° NNE 05:33:53 10° ENE visible
23 Feb 6.3 04:47:34 10° NNE 04:48:16 10° NNE 04:48:59 10° NNE visible
